| time (UTC) | temp C | wind direction | speed KPH | gust KPH | rain 1hr cm | rain 24hr cm | rain mn cm | humidity % | barometer mb |
| 20260503054522 | 14 | 0.0 | 0.0 | 0.00 | 0.00 | 0.00 | 63 | 1021.4 | |
| 20260503053518 | 13 | 0.0 | 0.0 | 0.00 | 0.00 | 0.00 | 64 | 1021.4 | |
| 20260503052609 | 12 | 0.0 | 0.0 | 0.00 | 0.00 | 0.00 | 66 | 1021.3 | |
| 20260503051607 | 11 | 0.0 | 0.0 | 0.00 | 0.00 | 0.00 | 74 | 1021.4 | |
| 20260503050559 | 10 | 0.0 | 0.0 | 0.00 | 0.00 | 0.00 | 77 | 1021.4 | |
| 20260503045555 | 9 | 0.0 | 0.0 | 0.00 | 0.00 | 0.00 | 80 | 1021.4 | |
| 20260503044548 | 8 | 0.0 | 0.0 | 0.00 | 0.00 | 0.00 | 82 | 1021.4 | |
| 20260503043546 | 8 | 0.0 | 0.0 | 0.00 | 0.00 | 0.00 | 81 | 1021.3 | |
| 20260503042541 | 8 | 0.0 | 0.0 | 0.00 | 0.00 | 0.00 | 80 | 1021.4 | |
| 20260503041532 | 8 | 0.0 | 0.0 | 0.00 | 0.00 | 0.00 | 83 | 1021.4 | |
| 20260503040531 | 8 | 0.0 | 0.0 | 0.00 | 0.00 | 0.00 | 83 | 1021.2 | |
| 20260503035522 | 8 | 0.0 | 0.0 | 0.00 | 0.00 | 0.00 | 82 | 1021.2 | |
| 20260503034520 | 8 | 0.0 | 0.0 | 0.00 | 0.00 | 0.00 | 83 | 1021.3 | |
| 20260503033613 | 8 | 0.0 | 0.0 | 0.00 | 0.00 | 0.00 | 84 | 1021.1 | |
| 20260503032608 | 8 | 0.0 | 0.0 | 0.00 | 0.00 | 0.00 | 81 | 1021.1 | |
| 20260503031605 | 8 | 0.0 | 0.0 | 0.00 | 0.00 | 0.00 | 81 | 1021.2 | |
| 20260503030558 | 8 | 0.0 | 0.0 | 0.00 | 0.00 | 0.00 | 81 | 1021.3 | |
| 20260503025554 | 9 | 0.0 | 0.0 | 0.00 | 0.00 | 0.00 | 81 | 1021.5 | |
| 20260503024543 | 8 | 0.0 | 0.0 | 0.00 | 0.00 | 0.00 | 84 | 1021.4 | |
| 20260503023535 | 8 | 0.0 | 0.0 | 0.00 | 0.00 | 0.00 | 83 | 1021.4 | |
| 20260503022532 | 8 | 0.0 | 0.0 | 0.00 | 0.00 | 0.00 | 83 | 1021.5 | |
| 20260503021529 | 8 | 0.0 | 0.0 | 0.00 | 0.00 | 0.00 | 83 | 1021.5 | |
| 20260503020523 | 8 | 0.0 | 0.0 | 0.00 | 0.00 | 0.00 | 83 | 1021.5 | |
| 20260503015520 | 8 | 0.0 | 0.0 | 0.00 | 0.00 | 0.00 | 82 | 1021.5 | |
| 20260503014610 | 8 | 0.0 | 0.0 | 0.00 | 0.00 | 0.00 | 83 | 1021.4 | |
| 20260503013607 | 8 | 0.0 | 0.0 | 0.00 | 0.00 | 0.00 | 84 | 1021.4 | |
| 20260503012559 | 8 | 0.0 | 0.0 | 0.00 | 0.00 | 0.00 | 84 | 1021.5 | |
| 20260503011556 | 9 | 0.0 | 0.0 | 0.00 | 0.00 | 0.00 | 83 | 1021.6 | |
| 20260503010553 | 9 | 0.0 | 0.0 | 0.00 | 0.00 | 0.00 | 83 | 1021.6 | |
| 20260503005547 | 9 | 0.0 | 0.0 | 0.00 | 0.00 | 0.00 | 82 | 1021.6 | |
| 20260503004542 | 10 | 0.0 | 0.0 | 0.00 | 0.00 | 0.00 | 81 | 1021.8 | |
| 20260503003533 | 10 | 0.0 | 0.0 | 0.00 | 0.00 | 0.00 | 81 | 1021.8 | |
| 20260503002531 | 10 | 0.0 | 0.0 | 0.00 | 0.00 | 0.00 | 80 | 1021.9 | |
| 20260503001522 | 10 | 0.0 | 0.0 | 0.00 | 0.00 | 0.00 | 80 | 1022.0 | |
| 20260503000520 | 10 | 0.0 | 0.0 | 0.00 | 0.00 | 0.00 | 79 | 1022.2 | |
| 20260502235519 | 11 | 0.0 | 0.0 | 0.00 | 0.00 | 0.00 | 78 | 1022.1 | |
| 20260502234609 | 10 | 0.0 | 0.0 | 0.00 | 0.00 | 0.00 | 79 | 1022.2 | |
| 20260502233606 | 10 | 0.0 | 0.0 | 0.00 | 0.00 | 0.00 | 80 | 1022.1 | |
| 20260502232558 | 10 | 0.0 | 0.0 | 0.00 | 0.00 | 0.00 | 80 | 1022.2 | |
| 20260502231555 | 10 | 0.0 | 0.0 | 0.00 | 0.00 | 0.00 | 79 | 1022.3 | |
| 20260502230547 | 11 | 0.0 | 0.0 | 0.00 | 0.00 | 0.00 | 79 | 1022.3 | |
| 20260502225544 | 11 | 0.0 | 0.0 | 0.00 | 0.00 | 0.00 | 78 | 1022.3 | |
| 20260502224543 | 11 | 0.0 | 0.0 | 0.00 | 0.00 | 0.00 | 77 | 1022.3 | |
| 20260502223532 | 11 | 0.0 | 0.0 | 0.00 | 0.00 | 0.00 | 76 | 1022.4 | |
| 20260502222530 | 11 | 0.0 | 0.0 | 0.00 | 0.00 | 0.00 | 75 | 1022.4 | |
| 20260502221523 | 12 | 0.0 | 0.0 | 0.00 | 0.00 | 0.00 | 73 | 1022.4 | |
| 20260502220521 | 12 | 0.0 | 0.0 | 0.00 | 0.00 | 0.00 | 73 | 1022.5 | |
| 20260502215612 | 12 | 0.0 | 0.0 | 0.00 | 0.00 | 0.00 | 73 | 1022.5 | |
| 20260502214608 | 12 | 0.0 | 0.0 | 0.00 | 0.00 | 0.00 | 73 | 1022.7 | |
| 20260502213608 | 13 | 0.0 | 0.0 | 0.00 | 0.00 | 0.00 | 72 | 1022.6 | |
| 20260502212556 | 13 | 0.0 | 0.0 | 0.00 | 0.00 | 0.00 | 70 | 1022.6 | |
| 20260502211546 | 12 | 0.0 | 0.0 | 0.00 | 0.00 | 0.00 | 71 | 1022.8 | |
| 20260502210543 | 12 | 0.0 | 0.0 | 0.00 | 0.00 | 0.00 | 72 | 1022.8 | |
| 20260502205535 | 13 | 0.0 | 0.0 | 0.00 | 0.00 | 0.00 | 72 | 1022.9 | |
| 20260502204524 | 13 | 0.0 | 0.0 | 0.00 | 0.00 | 0.00 | 70 | 1022.9 | |
| 20260502203520 | 14 | 0.0 | 0.0 | 0.00 | 0.00 | 0.00 | 70 | 1023.1 | |
| 20260502202519 | 14 | 0.0 | 0.0 | 0.00 | 0.00 | 0.00 | 70 | 1022.9 | |
| 20260502201609 | 14 | 0.0 | 0.0 | 0.00 | 0.00 | 0.00 | 70 | 1023.0 | |
| 20260502200608 | 15 | 0.0 | 0.0 | 0.00 | 0.00 | 0.00 | 70 | 1022.9 | |
| 20260502195558 | 15 | 0.0 | 0.0 | 0.00 | 0.00 | 0.00 | 69 | 1023.1 | |
| 20260502194557 | 15 | 0.0 | 0.0 | 0.00 | 0.00 | 0.00 | 68 | 1023.0 | |
| 20260502193547 | 16 | 0.0 | 0.0 | 0.00 | 0.00 | 0.00 | 67 | 1023.0 | |
| 20260502192546 | 16 | 0.0 | 0.0 | 0.00 | 0.00 | 0.00 | 66 | 1023.0 | |
| 20260502191541 | 17 | 0.0 | 0.0 | 0.00 | 0.00 | 0.00 | 65 | 1023.0 | |
| 20260502190533 | 17 | 0.0 | 0.0 | 0.00 | 0.00 | 0.00 | 62 | 1023.0 | |
| 20260502185531 | 18 | 0.0 | 0.0 | 0.00 | 0.00 | 0.00 | 59 | 1023.1 | |
| 20260502184523 | 18 | 0.0 | 0.0 | 0.00 | 0.00 | 0.00 | 57 | 1022.9 | |
| 20260502183519 | 19 | 0.0 | 0.0 | 0.00 | 0.00 | 0.00 | 56 | 1022.9 | |
| 20260502182611 | 20 | 0.0 | 0.0 | 0.00 | 0.00 | 0.00 | 53 | 1022.9 | |
| 20260502181610 | 21 | 0.0 | 0.0 | 0.00 | 0.00 | 0.00 | 50 | 1022.9 | |
| 20260502180607 | 21 | 0.0 | 0.0 | 0.00 | 0.00 | 0.00 | 48 | 1023.0 | |
| 20260502163609 | 25 | 91 | 1.6 | 6.4 | 0.00 | 0.00 | 0.00 | 35 | 1023.6 |
| 20260502162606 | 25 | 136 | 3.2 | 6.4 | 0.00 | 0.00 | 0.00 | 33 | 1023.8 |
| 20260502161558 | 25 | 117 | 3.2 | 6.4 | 0.00 | 0.00 | 0.00 | 33 | 1023.9 |
| 20260502160557 | 25 | 100 | 3.2 | 6.4 | 0.00 | 0.00 | 0.00 | 33 | 1024.0 |
| 20260502151530 | 26 | 180 | 3.2 | 12.9 | 0.00 | 0.00 | 0.00 | 33 | 1024.5 |
| 20260502150522 | 26 | 96 | 1.6 | 6.4 | 0.00 | 0.00 | 0.00 | 35 | 1024.6 |
| 20260502130519 | 26 | 91 | 4.8 | 11.3 | 0.00 | 0.00 | 0.00 | 36 | 1026.5 |
| 20260502123559 | 26 | 134 | 4.8 | 17.7 | 0.00 | 0.00 | 0.00 | 36 | 1027.0 |
| 20260502122555 | 26 | 204 | 1.6 | 9.7 | 0.00 | 0.00 | 0.00 | 36 | 1027.2 |
| 20260502121546 | 26 | 118 | 3.2 | 12.9 | 0.00 | 0.00 | 0.00 | 37 | 1027.4 |
| 20260502120542 | 25 | 139 | 3.2 | 12.9 | 0.00 | 0.00 | 0.00 | 36 | 1027.6 |
| 20260502115534 | 25 | 116 | 4.8 | 12.9 | 0.00 | 0.00 | 0.00 | 37 | 1027.7 |
| 20260502114530 | 25 | 115 | 3.2 | 14.5 | 0.00 | 0.00 | 0.00 | 37 | 1028.0 |
| 20260502113521 | 25 | 82 | 3.2 | 6.4 | 0.00 | 0.00 | 0.00 | 37 | 1028.1 |
| 20260502112612 | 25 | 219 | 1.6 | 6.4 | 0.00 | 0.00 | 0.00 | 38 | 1028.1 |
| 20260502111608 | 24 | 126 | 3.2 | 9.7 | 0.00 | 0.00 | 0.00 | 39 | 1028.2 |
| 20260502110601 | 23 | 104 | 4.8 | 14.5 | 0.00 | 0.00 | 0.00 | 39 | 1028.4 |
| 20260502105556 | 23 | 123 | 4.8 | 17.7 | 0.00 | 0.00 | 0.00 | 41 | 1028.5 |
| 20260502104547 | 16 | 66 | 1.6 | 11.3 | 0.00 | 0.00 | 0.00 | 73 | 1028.6 |
| 20260502103545 | 14 | 88 | 4.8 | 9.7 | 0.00 | 0.00 | 0.00 | 91 | 1028.7 |
| 20260502102534 | 15 | 308 | 3.2 | 6.4 | 0.00 | 0.00 | 0.00 | 90 | 1029.0 |
| 20260502101530 | 24 | 119 | 3.2 | 11.3 | 0.00 | 0.00 | 0.00 | 39 | 1029.0 |
| 20260502100522 | 23 | 315 | 3.2 | 9.7 | 0.00 | 0.00 | 0.00 | 40 | 1029.2 |
| 20260502090544 | 22 | 289 | 1.6 | 9.7 | 0.00 | 0.00 | 0.00 | 46 | 1029.8 |
| 20260502071534 | 17 | 123 | 3.2 | 6.4 | 0.00 | 0.00 | 0.00 | 53 | 1030.4 |
| 20260502070530 | 16 | 83 | 1.6 | 6.4 | 0.00 | 0.00 | 0.00 | 54 | 1030.5 |
| 20260502065523 | 16 | 107 | 3.2 | 9.7 | 0.00 | 0.00 | 0.00 | 54 | 1030.5 |
| 20260502064518 | 16 | 158 | 3.2 | 6.4 | 0.00 | 0.00 | 0.00 | 56 | 1030.5 |
| 20260502063040 | 15 | 99 | 1.6 | 6.4 | 0.00 | 0.00 | 0.00 | 58 | 1030.7 |